Location: Overspoor
(51.4747°N, 5.6641°E)
Time: 08:55:24
(UTC+02:00)

SPROUT - Visible Passes

Search period start: 28 June 2022 00:00
Search period end: 08 July 2022 00:00
Orbit: 588 x 601 km, 97.9° (Epoch: 27 June)

Date Brightness Start Highest point End Pass type
(mag) Time Alt. Az. Time Alt. Az. Time Alt. Az.
28 Jun ? 01:51:04 19° SE 01:53:51 54° ENE 01:57:57 10° N visible
28 Jun ? 03:27:42 14° SW 03:29:47 19° W 03:32:46 10° NW visible
29 Jun ? 00:27:34 10° ENE 00:28:29 11° NE 00:29:25 10° NE visible
29 Jun ? 02:00:39 21° SSE 02:03:18 67° ENE 02:07:27 10° N visible
29 Jun ? 03:37:17 11° WSW 03:39:21 15° W 03:41:52 10° NW visible
30 Jun ? 00:36:00 10° E 00:37:49 13° NE 00:39:39 10° NNE visible
30 Jun ? 02:10:14 23° SSE 02:12:45 82° ENE 02:16:57 10° NNW visible
30 Jun ? 03:47:06 10° WSW 03:48:55 13° W 03:50:46 10° WNW visible
01 Jul ? 00:44:47 10° E 00:47:09 15° ENE 00:49:32 10° NNE visible
01 Jul ? 02:19:48 25° S 02:22:12 81° WSW 02:26:24 10° NNW visible
01 Jul ? 03:58:12 10° W 03:58:30 10° W 03:58:49 10° W visible
02 Jul ? 00:53:42 10° E 00:56:29 18° ENE 00:59:16 10° NNE visible
02 Jul ? 02:29:21 25° S 02:31:39 66° WSW 02:35:49 10° NNW visible
03 Jul ? 01:02:42 10° ESE 01:05:49 21° ENE 01:08:57 10° NNE visible
03 Jul ? 02:38:55 25° SSW 02:41:06 53° W 02:45:12 10° NNW visible
04 Jul ? 01:11:49 10° ESE 01:15:09 25° ENE 01:18:33 10° N visible
04 Jul ? 02:48:27 24° SSW 02:50:33 43° W 02:54:33 10° NNW visible
05 Jul ? 01:21:21 13° ESE 01:24:29 29° ENE 01:28:07 10° N visible
05 Jul ? 02:58:00 22° SSW 03:00:01 35° W 03:03:52 10° NNW visible
06 Jul ? 01:30:53 15° SE 01:33:49 35° ENE 01:37:39 10° N visible
06 Jul ? 03:07:31 20° SW 03:09:29 28° W 03:13:08 10° NW visible
07 Jul ? 01:40:25 18° SE 01:43:10 42° ENE 01:47:07 10° N visible
07 Jul ? 03:17:02 17° SW 03:18:56 24° W 03:22:20 10° NW visible
